Find Starlink 34782

NORAD ID: 65358 Int'l Des: 2025-190 Owner: SPXS Country: US Constellation: starlink operational
LEOCIRCULAR

現在のビュー

3D地球を読み込み中...

About Starlink 34782

Starlink 34782 (NORAD 65358) is a starlink constellation satellite (v2 mini) launched Aug 28, 2025 by SPXS of US. It operates in LEO, CIRCULAR orbit with a mass of 575.00 kg.

Starlink 34782について

説明を読み込み中...

次回通過

Passes for default location (London). Set your location on the main map for personalized predictions.

高度履歴

Loading altitude history...

軌道要素

1 65358U 25190H 26195.55546358 .00006700 00000-0 23828-3 0 9997
2 65358 53.1611 298.5665 0000505 115.7248 244.3805 15.30178176 49182
Epoch: Jul 14, 2026 • Age: 8 hours

現在のステータス

高度 475.7 km
遠地点 / 近地点 N/A
速度 7.63 km/s
衛星直下点 18.78°N, 59.88°E
打ち上げ日 Aug 28, 2025
運用期間 0.8 years
タイプ internet

技術仕様

分類 Payload
質量 575.00 kg
乾燥質量 530.00 kg
総質量 575.00 kg
長さ 0.30 m
直径 4.10 m
スパン 29.00 m
形状 Box + pan
製造者 SPXS
バスタイプ Starlink V2MO
フェーズステータス In Orbit
所有者/国 SPXS/US

Most Searched